Oak Ridge, TN

12:56 AM EDT on June 29, 2017 (GMT -0400)
Oak Ridge

Weather History for KOQT - November, 2013

Change the Weather History Date:

Saturday, November 16, 2013

  Actual Average (KTYS) Record (KTYS)
Temperature  
Mean Temperature 52 °F -  
Max Temperature 60 °F 58 °F 77 °F (1988)
Min Temperature 45 °F 38 °F 14 °F (1883)
Degree Days  
Heating Degree Days 12    
Growing Degree Days 2 (Base 50)    
Moisture  
Dew Point 47 °F    
Average Humidity 92    
Maximum Humidity 97    
Minimum Humidity 75    
Precipitation  
Precipitation 0.00 in - - ()
Sea Level Pressure  
Sea Level Pressure 30.20 in    
Wind  
Wind Speed 0 mph (SSW)    
Max Wind Speed 4 mph    
Max Gust Speed -    
Visibility 4 miles    
Events      
Averages and records for this station are not official NWS values.
T = Trace of Precipitation, MM = Missing Value Source: NWS Daily Summary

Daily Weather History Graph

Daily Weather History Graph

Search for Another Location

Airport or City:

Trip Planner

Search our weather history database for the weather conditions in past years. The results will help you decide how hot, cold, wet, or windy it might be!

Date:

Astronomy

Nov. 16, 2013 Rise Set
Actual Time 7:14 AM EST 5:28 PM EST
Civil Twilight 6:47 AM EST 5:55 PM EST
Nautical Twilight 6:16 AM EST 6:26 PM EST
Astronomical Twilight 5:45 AM EST 6:57 PM EST
Moon 5:01 PM EST (11/16) 6:11 AM EST (11/16)
Length of Visible Light 11h 08m
Length of Day
10h 13m
Waxing Gibbous, 99% of the Moon is Illuminated
Nov 16
Waxing Gibbous
Nov 17
Full
Nov 25
Last Quarter
Dec 2
New
Dec 9
First Quarter

Hourly Weather History & Observations

Time (EST) Temp. Dew Point Humidity Pressure Visibility Wind Dir Wind Speed Gust Speed Precip Events Conditions
12:53 AM 45.0 °F 43.0 °F 93% 30.22 in 5.0 mi Calm Calm - N/A   Overcast
1:53 AM 45.0 °F 44.1 °F 97% 30.21 in 5.0 mi Calm Calm - N/A   Overcast
2:11 AM 46.0 °F 44.1 °F 93% 30.19 in 6.0 mi Calm Calm - N/A   Overcast
2:48 AM 46.4 °F 44.6 °F 93% 30.19 in 3.0 mi Calm Calm - N/A   Overcast
2:53 AM 46.0 °F 44.1 °F 93% 30.21 in 3.0 mi Calm Calm - N/A   Overcast
3:03 AM 46.0 °F 44.1 °F 93% 30.19 in 2.0 mi Calm Calm - N/A   Overcast
3:41 AM 46.0 °F 44.1 °F 93% 30.19 in 1.8 mi Calm Calm - N/A   Overcast
3:49 AM 46.4 °F 44.6 °F 93% 30.19 in 1.8 mi Calm Calm - N/A   Overcast
3:53 AM 46.0 °F 44.1 °F 93% 30.21 in 2.0 mi Calm Calm - N/A   Overcast
4:07 AM 46.0 °F 44.1 °F 93% 30.19 in 2.0 mi Calm Calm - N/A   Overcast
4:22 AM 46.0 °F 45.0 °F 96% 30.18 in 1.8 mi Calm Calm - N/A   Overcast
4:27 AM 46.0 °F 45.0 °F 96% 30.18 in 2.0 mi Calm Calm - N/A   Overcast
4:43 AM 46.0 °F 45.0 °F 96% 30.18 in 3.0 mi Calm Calm - N/A   Overcast
4:53 AM 46.0 °F 45.0 °F 96% 30.21 in 3.0 mi Calm Calm - N/A   Overcast
5:10 AM 46.0 °F 45.0 °F 96% 30.19 in 3.0 mi Calm Calm - N/A   Overcast
5:53 AM 46.0 °F 45.0 °F 96% 30.21 in 3.0 mi Calm Calm - N/A   Overcast
6:22 AM 46.0 °F 45.0 °F 96% 30.20 in 2.5 mi Calm Calm - N/A   Overcast
6:37 AM 46.0 °F 45.0 °F 96% 30.20 in 2.0 mi Calm Calm - N/A   Overcast
6:53 AM 46.9 °F 45.0 °F 93% 30.22 in 2.0 mi Calm Calm - N/A   Overcast
7:07 AM 46.9 °F 45.0 °F 93% 30.20 in 1.5 mi Calm Calm - N/A   Overcast
7:46 AM 46.9 °F 46.0 °F 97% 30.22 in 1.5 mi Calm Calm - N/A   Overcast
7:53 AM 46.9 °F 46.0 °F 97% 30.24 in 1.0 mi Calm Calm - N/A   Overcast
8:15 AM 46.9 °F 46.0 °F 97% 30.22 in 1.5 mi Calm Calm - N/A   Overcast
8:41 AM 48.0 °F 46.0 °F 93% 30.22 in 2.0 mi Calm Calm - N/A   Overcast
8:53 AM 48.0 °F 46.0 °F 93% 30.24 in 2.5 mi Calm Calm - N/A   Overcast
9:01 AM 48.0 °F 46.0 °F 93% 30.23 in 2.5 mi Calm Calm - N/A   Overcast
9:13 AM 48.0 °F 46.0 °F 93% 30.23 in 3.0 mi Calm Calm - N/A   Overcast
9:25 AM 48.0 °F 46.9 °F 96% 30.24 in 3.0 mi Calm Calm - N/A   Overcast
9:49 AM 48.2 °F 46.4 °F 93% 30.24 in 3.0 mi Calm Calm - N/A   Overcast
9:53 AM 48.9 °F 46.9 °F 93% 30.26 in 3.0 mi Calm Calm - N/A   Overcast
10:07 AM 48.9 °F 46.9 °F 93% 30.24 in 3.0 mi Calm Calm - N/A   Overcast
10:25 AM 48.9 °F 46.9 °F 93% 30.25 in 3.0 mi Calm Calm - N/A   Overcast
10:46 AM 48.9 °F 46.9 °F 93% 30.25 in 3.0 mi Calm Calm - N/A   Overcast
10:53 AM 50.0 °F 48.0 °F 93% 30.26 in 4.0 mi Calm Calm - N/A   Overcast
11:27 AM 50.0 °F 48.0 °F 93% 30.24 in 4.0 mi Calm Calm - N/A   Overcast
11:53 AM 51.1 °F 48.0 °F 89% 30.24 in 4.0 mi Calm Calm - N/A   Overcast
12:04 PM 52.0 °F 48.0 °F 86% 30.22 in 3.0 mi Calm Calm - N/A   Overcast
12:48 PM 53.6 °F 50.0 °F 88% 30.18 in 6.0 mi Calm Calm - N/A   Overcast
12:53 PM 55.0 °F 50.0 °F 83% 30.19 in 6.0 mi Calm Calm - N/A   Haze
1:16 PM 55.0 °F 50.0 °F 83% 30.17 in 7.0 mi Calm Calm - N/A   Overcast
1:53 PM 55.9 °F 50.0 °F 80% 30.17 in 7.0 mi Calm Calm - N/A   Overcast
2:53 PM 57.9 °F 51.1 °F 78% 30.15 in 10.0 mi Calm Calm - N/A   Overcast
3:53 PM 60.1 °F 52.0 °F 75% 30.12 in 10.0 mi Calm Calm - N/A   Clear
4:53 PM 59.0 °F 52.0 °F 78% 30.13 in 10.0 mi Calm Calm - N/A   Clear
5:53 PM 55.9 °F 52.0 °F 87% 30.13 in 10.0 mi Calm Calm - N/A   Clear
6:53 PM 54.0 °F 51.1 °F 90% 30.14 in 8.0 mi SW 3.5 mph - N/A   Mostly Cloudy
7:53 PM 53.1 °F 51.1 °F 93% 30.14 in 6.0 mi Calm Calm - N/A   Mostly Cloudy
8:53 PM 52.0 °F 50.0 °F 93% 30.14 in 5.0 mi SSW 3.5 mph - N/A   Mostly Cloudy
9:53 PM 52.0 °F 50.0 °F 93% 30.13 in 5.0 mi Calm Calm - N/A   Partly Cloudy
10:53 PM 53.1 °F 51.1 °F 93% 30.13 in 5.0 mi SSE 3.5 mph - N/A   Overcast
11:53 PM 55.0 °F 52.0 °F 89% 30.13 in 6.0 mi Calm Calm - N/A   Overcast